TimeMDT,TemperatureF,Dew PointF,Humidity,Sea Level PressureIn,VisibilityMPH,Wind Direction,Wind SpeedMPH,Gust SpeedMPH,PrecipitationIn,Events,Conditions,WindDirDegrees,DateUTC
12:53 AM,39.9,30.9,70,30.17,10.0,NNE,6.9,-,N/A,,Scattered Clouds,20,2013-10-13 06:53:00
1:53 AM,37.9,30.0,73,30.17,10.0,NE,9.2,-,N/A,,Partly Cloudy,40,2013-10-13 07:53:00
2:53 AM,37.9,28.9,70,30.17,10.0,NNE,5.8,-,N/A,,Partly Cloudy,20,2013-10-13 08:53:00
3:53 AM,37.0,28.0,70,30.15,10.0,North,4.6,-,N/A,,Clear,10,2013-10-13 09:53:00
4:53 AM,37.0,28.0,70,30.16,10.0,NNE,5.8,-,N/A,,Clear,20,2013-10-13 10:53:00
5:53 AM,36.0,28.0,73,30.16,10.0,North,8.1,-,N/A,,Clear,360,2013-10-13 11:53:00
6:53 AM,35.1,28.0,76,30.19,10.0,Calm,Calm,-,N/A,,Clear,0,2013-10-13 12:53:00
7:53 AM,34.0,28.0,79,30.19,10.0,NW,5.8,-,N/A,,Partly Cloudy,310,2013-10-13 13:53:00
8:53 AM,37.0,28.9,73,30.19,10.0,North,5.8,-,N/A,,Partly Cloudy,350,2013-10-13 14:53:00
9:53 AM,37.9,30.0,73,30.20,10.0,North,4.6,-,N/A,,Scattered Clouds,350,2013-10-13 15:53:00
10:53 AM,39.9,28.9,65,30.19,10.0,NE,8.1,-,N/A,,Scattered Clouds,40,2013-10-13 16:53:00
11:53 AM,41.0,30.0,65,30.20,10.0,Calm,Calm,-,N/A,,Overcast,0,2013-10-13 17:53:00
12:53 PM,42.1,30.0,62,30.18,10.0,Calm,Calm,-,N/A,,Overcast,0,2013-10-13 18:53:00
1:53 PM,42.1,32.0,67,30.17,10.0,NE,4.6,-,0.00,Rain,Light Rain,40,2013-10-13 19:53:00
2:53 PM,42.1,33.1,70,30.16,10.0,North,3.5,-,0.00,,Overcast,10,2013-10-13 20:53:00
3:08 PM,41.0,33.1,73,30.11,5.0,NW,3.5,-,0.01,Rain,Rain,320,2013-10-13 21:08:00
3:53 PM,39.0,34.0,82,30.17,8.0,North,5.8,-,0.09,Rain,Light Rain,360,2013-10-13 21:53:00
4:04 PM,39.0,34.0,82,30.11,8.0,North,5.8,-,0.01,Rain,Light Rain,10,2013-10-13 22:04:00
4:53 PM,39.9,36.0,86,30.17,10.0,NNW,4.6,-,0.03,Rain,Light Rain,340,2013-10-13 22:53:00
6:53 PM,41.0,39.0,93,30.19,10.0,NNW,11.5,-,0.00,Rain,Light Rain,340,2013-10-14 00:53:00
7:34 PM,41.0,39.0,93,30.13,10.0,North,10.4,-,0.00,,Overcast,350,2013-10-14 01:34:00
7:53 PM,42.1,39.9,92,30.19,10.0,NNE,10.4,-,0.00,,Light Drizzle,20,2013-10-14 01:53:00
8:37 PM,41.0,39.9,96,30.14,10.0,NNE,9.2,-,0.01,Rain,Light Rain,30,2013-10-14 02:37:00
8:53 PM,41.0,39.0,93,30.19,7.0,NNE,15.0,-,0.02,Rain,Light Rain,20,2013-10-14 02:53:00
9:53 PM,39.9,39.0,97,30.19,4.0,NNE,16.1,-,0.02,Rain,Light Rain,20,2013-10-14 03:53:00
10:53 PM,39.9,39.0,97,30.19,5.0,NNE,12.7,-,0.02,Rain,Light Rain,30,2013-10-14 04:53:00
11:53 PM,39.9,37.9,93,30.19,4.0,NNE,15.0,-,0.03,Rain,Light Rain,20,2013-10-14 05:53:00